[[{"header":{"parameterUnit":"m.s-1","parameterCategory":1,"la1":30.2991,"la2":30.254,"lo1":-89.0895,"lo2":-89.0444,"dy":0.0017,"dx":0.0017,"nx":28,"ny":28,"refTime":"2023-08-05T09:00:00:Z","depth":0,"parameterNumber":2,"parameterNumberName":"U-component_of_WINDS"},"data":[0,0,0,0,0,0,0,0,0,0,0,0,0,0,0,0,0,0,0,0,0,0,0,0,0,0,0,0,0,0,0,0,0,0,0,0,0,0,0,0,0,0,0,0,0,0,0,0,0,0,0,0,0,0,0,0,0,0,5.672,5.6722,0,5.6901,5.6903,5.6905,5.6857,5.6854,5.685,5.6847,5.7032,5.704,5.7048,0,0,0,0,0,0,0,0,0,0,0,0,0,5.6332,5.6339,5.672,5.6722,5.6724,5.69,5.6903,5.6905,5.6858,5.6853,5.6849,5.6845,5.7029,5.7039,5.7049,0,0,0,0,0,0,0,0,0,0,0,0,0,5.6505,5.6341,5.6719,5.6722,5.6724,5.69,5.6903,5.6906,5.6859,5.6853,5.6848,5.6843,5.7026,5.7038,5.705,5.7235,0,0,5.7088,5.7094,0,0,0,0,0,0,0,0,5.6495,5.6519,5.6719,5.6722,5.6725,5.6851,5.6834,5.7016,5.686,5.6808,5.6846,5.684,5.6976,5.6992,5.7038,5.7244,5.7252,5.7089,5.7097,5.7102,5.7106,0,0,0,0,0,0,0,5.6483,5.6511,5.6791,5.6722,5.6725,5.6713,5.6732,5.6868,5.692,5.6812,5.6809,5.6831,5.6976,5.7026,5.7042,5.7254,5.7089,5.71,5.7108,5.7113,5.7617,5.7622,0,0,0,0,0,0,5.6469,5.6502,5.6785,5.6797,5.6594,5.6725,5.6746,5.6816,5.6918,5.6929,5.6835,5.6828,5.7008,5.7028,5.7048,5.7268,5.7102,5.7114,5.7121,5.7611,5.7618,5.7625,0,0,0,0,0,0,5.6461,5.6495,5.6778,5.6648,5.6684,5.6737,5.6816,5.6822,5.6872,5.6936,5.6945,5.6876,5.7004,5.7031,5.7188,5.7274,5.7119,5.7131,5.7604,5.7613,5.7621,5.7712,0,0,0,0,0,0,5.645,5.6493,5.6564,5.665,5.6691,5.6916,5.6822,5.683,5.6893,5.6885,5.6977,5.6987,5.7002,5.717,5.72,5.7289,5.714,5.7596,5.7608,5.7618,5.7701,5.7723,5.7741,0,0,0,0,0,5.6437,5.6583,5.6568,5.6602,5.6781,5.6921,5.6944,5.6958,5.6901,5.6972,5.7013,5.6984,5.726,5.7186,5.722,5.7314,5.7591,5.7605,5.7618,5.7692,5.7719,5.7741,0,0,0,0,0,0,5.6506,5.6594,5.6578,5.6757,5.6832,5.6913,5.7003,5.6986,5.7078,5.7067,5.708,5.7102,5.7261,5.7304,5.722,5.7496,5.7417,5.7438,5.7462,5.7488,5.7507,5.7493,5.7151,0,0,0,0,0,5.6542,5.6648,5.672,5.6871,5.6909,5.695,5.7011,5.7015,5.7093,5.7125,5.7177,5.7253,5.7357,5.7425,5.7524,5.7708,5.7725,5.7788,5.7808,5.7824,5.7841,5.7938,5.7966,5.7668,5.7668,5.7668,0,0,5.6617,5.6679,5.6745,5.6886,5.6944,5.7053,5.6977,5.7096,5.7176,5.7143,5.7293,5.7335,5.7421,5.7591,5.7669,5.7631,5.7928,5.7841,5.7854,5.7862,5.7955,5.7983,5.8008,5.7677,5.7676,5.7674,0,0,5.681,5.6869,5.6999,5.7058,5.7147,5.7173,5.7204,5.7288,5.7313,5.7465,5.7441,5.7537,5.7716,5.7777,5.7832,5.8045,5.8021,5.8077,5.818,5.8274,5.8298,5.8319,5.8392,5.8418,5.8095,5.8095,5.8095,0,5.6892,5.7056,5.7068,5.7189,5.725,5.7224,5.7355,5.7413,5.7529,5.7572,5.7528,5.775,5.7807,5.7989,5.8041,5.8087,5.8121,5.8066,5.8294,5.8315,5.8334,5.8404,5.8432,5.8101,5.81,5.81,5.8099,0,5.7151,5.7265,5.736,5.7472,5.7544,5.767,5.77,5.7771,5.7769,5.7799,5.7952,5.8019,5.8129,5.8173,5.8173,5.8356,5.8329,5.829,5.821,5.8368,5.8434,5.8461,5.8109,5.8107,5.8106,5.8104,0,0,5.7393,5.7509,5.7543,5.7592,5.7687,5.7775,5.7898,5.8006,5.8066,5.8147,5.8249,5.84,5.8363,5.8425,5.8432,5.8515,5.8675,5.8465,5.8467,5.8499,5.8877,5.8904,5.8935,5.8661,5.8666,5.867,5.8869,0,5.7592,5.7808,5.7822,5.8018,5.8121,5.8097,5.8204,5.8273,5.8305,5.8396,5.8431,5.8536,5.8481,5.8518,5.86,5.8639,5.8751,5.8625,5.8754,5.8759,5.8731,5.897,5.9,5.9183,5.8895,5.8899,5.8902,0,5.7853,5.794,5.8146,5.8223,5.8267,5.8363,5.8461,5.855,5.8627,5.8644,5.8712,5.8706,5.8831,5.8748,5.8919,5.8833,5.8887,5.8914,5.8921,5.8932,5.8838,5.8984,5.9243,5.9269,5.8944,5.894,5.8937,0,5.8004,5.8174,5.8318,5.8361,5.8456,5.8524,5.8566,5.8638,5.8701,5.8787,5.8827,5.8927,5.8981,5.9058,5.9078,5.9017,5.9248,5.9168,5.9263,5.9263,5.9311,5.9307,5.9579,5.9351,5.935,5.935,5.9349,0,5.8223,5.8349,5.8387,5.8475,5.8615,5.8629,5.8767,5.8805,5.8869,5.8963,5.895,5.9038,5.9061,5.9154,5.917,5.9307,5.9333,5.9348,5.9351,5.9348,5.9346,5.9382,5.9368,5.9357,5.9355,5.9354,5.9353,0,5.8416,5.8446,5.8601,5.8678,5.87,5.8799,5.8864,5.8948,5.8977,5.9096,5.9125,5.917,5.9278,5.9306,5.9436,5.9447,5.9608,5.96,5.9581,5.958,5.9673,5.9662,5.9975,6.0015,5.9763,5.9766,5.9768,0,5.8552,5.8648,5.8735,5.8796,5.8842,5.8942,5.9005,5.9023,5.9089,5.9183,5.9255,5.9361,5.9447,5.9621,5.9664,5.9763,5.9755,5.9858,5.977,5.9763,5.9753,5.9746,5.9754,5.9874,5.9877,5.9879,5.9881,0,5.8791,5.88,5.8892,5.8989,5.9065,5.9142,5.9216,5.9267,5.9294,5.937,5.9479,5.9546,5.9677,5.9781,5.988,5.9923,5.9906,5.9908,5.9935,5.9932,5.9916,5.9922,5.9624,5.99,5.9898,5.9897,5.9896,5.9895,5.8957,5.904,5.9113,5.9215,5.9272,5.9341,5.9422,5.946,5.9552,5.966,5.9665,5.9783,5.9855,5.9986,6.0034,6.0126,6.0095,6.0135,6.0144,6.0153,6.0159,5.9903,6.0145,6.0144,6.0144,6.0144,6.0143,0,5.9192,5.9237,5.9331,5.9433,5.9513,5.949,5.957,5.9638,5.9742,5.9811,5.9895,6.0019,6.012,6.0171,6.0271,6.0335,6.0329,6.036,6.0354,6.0364,6.0183,6.0149,6.0363,6.0363,6.0363,6.0363,6.0362,6.0362,5.9323,5.9461,5.9479,5.9644,5.9688,5.9804,5.9851,5.9913,5.9968,6.0107,6.0191,6.0223,6.0284,6.0388,6.0478,6.0491,6.0527,6.0561,6.0569,6.0399,6.0377,6.0355,6.0323,6.057,6.057,6.0741,6.0743,6.0744]},{"header":{"parameterUnit":"m.s-1","parameterCategory":1,"la1":30.2991,"la2":30.254,"lo1":-89.0895,"lo2":-89.0444,"dy":0.0017,"dx":0.0017,"nx":28,"ny":28,"refTime":"2023-08-05T09:00:00:Z","depth":0,"parameterNumber":3,"parameterNumberName":"V-component_of_WINDS"},"data":[0,0,0,0,0,0,0,0,0,0,0,0,0,0,0,0,0,0,0,0,0,0,0,0,0,0,0,0,0,0,0,0,0,0,0,0,0,0,0,0,0,0,0,0,0,0,0,0,0,0,0,0,0,0,0,0,0,0,1.2746,1.2746,0,1.2796,1.2796,1.2797,1.2781,1.278,1.2779,1.2778,1.283,1.2832,1.2835,0,0,0,0,0,0,0,0,0,0,0,0,0,1.2636,1.2638,1.2746,1.2746,1.2747,1.2796,1.2796,1.2797,1.2781,1.278,1.2778,1.2777,1.2829,1.2832,1.2835,0,0,0,0,0,0,0,0,0,0,0,0,0,1.2685,1.2639,1.2746,1.2745,1.2745,1.2796,1.2796,1.2797,1.2781,1.278,1.2778,1.2776,1.2828,1.2832,1.2835,1.289,0,0,1.2846,1.2848,0,0,0,0,0,0,0,0,1.2682,1.2689,1.2744,1.2745,1.2745,1.278,1.2777,1.2828,1.2782,1.2768,1.2777,1.2776,1.2815,1.2819,1.2832,1.2892,1.2895,1.2847,1.2849,1.285,1.2851,0,0,0,0,0,0,0,1.2679,1.2687,1.2766,1.2745,1.2746,1.2742,1.2747,1.2787,1.28,1.2769,1.2768,1.2774,1.2815,1.2829,1.2834,1.2896,1.2847,1.285,1.2852,1.2853,1.3001,1.3003,0,0,0,0,0,0,1.2675,1.2684,1.2764,1.2767,1.2709,1.2745,1.2751,1.2771,1.2799,1.2802,1.2775,1.2773,1.2824,1.2829,1.2835,1.2901,1.285,1.2854,1.2856,1.3,1.3002,1.3004,0,0,0,0,0,0,1.2673,1.2682,1.2762,1.2725,1.2735,1.2749,1.2771,1.2773,1.2787,1.2804,1.2806,1.2787,1.2823,1.283,1.2876,1.2902,1.2855,1.2859,1.2998,1.3,1.3003,1.3032,0,0,0,0,0,0,1.2669,1.2681,1.2703,1.2726,1.2737,1.2802,1.2773,1.2775,1.2793,1.279,1.2816,1.2819,1.2822,1.2871,1.288,1.2906,1.2862,1.2995,1.2999,1.3002,1.3029,1.3035,1.3041,0,0,0,0,0,1.2666,1.2709,1.2704,1.2714,1.2764,1.2804,1.281,1.2813,1.2795,1.2816,1.2827,1.2818,1.2898,1.2876,1.2886,1.2914,1.2994,1.2998,1.3002,1.3026,1.3034,1.3041,0,0,0,0,0,0,1.269,1.2713,1.2707,1.2759,1.2779,1.2801,1.2828,1.2821,1.2848,1.2844,1.2846,1.2852,1.2899,1.2911,1.2886,1.2967,1.2943,1.2949,1.2958,1.2966,1.2972,1.2969,1.2864,0,0,0,0,0,1.2701,1.2732,1.275,1.2794,1.2805,1.2815,1.2832,1.2832,1.2853,1.2862,1.2876,1.2898,1.2927,1.2947,1.2976,1.303,1.3035,1.3054,1.306,1.3065,1.307,1.3099,1.3107,1.3017,1.3017,1.3017,0,0,1.2725,1.2741,1.2761,1.28,1.2815,1.2847,1.2822,1.2857,1.288,1.2868,1.2912,1.2923,1.2946,1.2996,1.3019,1.3008,1.3096,1.307,1.3074,1.3077,1.3104,1.3113,1.312,1.3019,1.3019,1.3018,0,0,1.2785,1.2801,1.2839,1.2855,1.2879,1.2884,1.2893,1.2916,1.2922,1.2966,1.2957,1.2985,1.3036,1.3053,1.3069,1.3132,1.3125,1.3142,1.3174,1.3201,1.3209,1.3215,1.3238,1.3246,1.3147,1.3147,1.3147,0,1.2812,1.2859,1.286,1.2895,1.2912,1.2901,1.2939,1.2955,1.2987,1.2999,1.2985,1.3048,1.3064,1.3117,1.3132,1.3145,1.3156,1.3139,1.3207,1.3214,1.322,1.3241,1.325,1.3149,1.3149,1.3148,1.3148,0,1.2891,1.2924,1.2952,1.2982,1.3002,1.3039,1.3044,1.3065,1.3062,1.3069,1.3114,1.3131,1.3162,1.3175,1.3173,1.3228,1.322,1.3207,1.3182,1.323,1.3251,1.3259,1.3151,1.3151,1.315,1.315,0,0,1.297,1.2998,1.3009,1.3022,1.3046,1.3071,1.3107,1.3136,1.3154,1.3175,1.3205,1.3248,1.3235,1.3253,1.3253,1.3277,1.3326,1.3261,1.3262,1.3273,1.3386,1.3396,1.3406,1.332,1.3322,1.3323,1.3384,0,1.3032,1.3094,1.3095,1.3152,1.3182,1.317,1.3201,1.3219,1.3226,1.3252,1.326,1.329,1.3272,1.3282,1.3305,1.3315,1.3349,1.3311,1.3348,1.335,1.3343,1.3416,1.3428,1.3484,1.3392,1.3394,1.3394,0,1.3113,1.3136,1.3197,1.3215,1.3228,1.3256,1.3282,1.3307,1.3327,1.333,1.3348,1.3344,1.338,1.3354,1.3403,1.3376,1.3391,1.3398,1.34,1.3405,1.3376,1.3423,1.3503,1.3511,1.3407,1.3406,1.3405,0,1.3164,1.3211,1.3252,1.3264,1.3287,1.3306,1.3317,1.3335,1.3352,1.3375,1.3387,1.3414,1.3429,1.345,1.3452,1.3433,1.3501,1.3476,1.3505,1.3505,1.3521,1.352,1.3605,1.353,1.353,1.353,1.353,0,1.3234,1.3271,1.3275,1.3301,1.3342,1.3342,1.3382,1.3391,1.3407,1.3434,1.3426,1.3451,1.3453,1.3479,1.3482,1.3522,1.3528,1.3532,1.3532,1.3533,1.3533,1.3544,1.354,1.3532,1.3532,1.3531,1.3531,0,1.3299,1.3303,1.3348,1.3365,1.337,1.34,1.3414,1.3439,1.3444,1.3478,1.3486,1.3495,1.3525,1.3529,1.3565,1.3566,1.3614,1.361,1.3607,1.3607,1.3636,1.3633,1.3731,1.3744,1.3661,1.3661,1.3662,0,1.3343,1.3371,1.3391,1.3408,1.3419,1.3447,1.3465,1.3465,1.3483,1.3506,1.3528,1.3557,1.358,1.3628,1.3638,1.3665,1.3661,1.3694,1.3666,1.3665,1.3662,1.366,1.3663,1.3699,1.37,1.3701,1.3702,0,1.3421,1.3422,1.3447,1.3472,1.3493,1.3513,1.3532,1.3546,1.3549,1.3569,1.36,1.3618,1.3653,1.3682,1.3708,1.3718,1.3711,1.371,1.3718,1.372,1.3717,1.3719,1.3623,1.3708,1.3708,1.3707,1.3707,1.3707,1.3478,1.3502,1.3519,1.3547,1.356,1.3578,1.3601,1.3609,1.3634,1.3662,1.3661,1.3694,1.3711,1.3745,1.3757,1.3783,1.3773,1.3785,1.3788,1.3791,1.3794,1.3712,1.3788,1.3788,1.3787,1.3787,1.3787,0,1.3555,1.3565,1.3591,1.3617,1.3639,1.3628,1.3648,1.3667,1.3696,1.3713,1.3735,1.3769,1.3796,1.3807,1.3834,1.3852,1.3849,1.3859,1.3858,1.3861,1.3802,1.3792,1.3861,1.3861,1.3861,1.3861,1.3861,1.3861,1.3599,1.3638,1.364,1.3687,1.3696,1.3728,1.3741,1.3756,1.377,1.3808,1.383,1.3837,1.3851,1.3878,1.3902,1.3905,1.3915,1.3926,1.3927,1.3872,1.3865,1.3858,1.3849,1.3929,1.3929,1.3984,1.3985,1.3985]}]]